Regional Weather Roundup
Issued by NWS

Home | Current Version | Previous Version | Graphics & Text | Print | Product List | Glossary On
Versions: 1 2 3 4 5 6 7 8 9 10 11 12 13 14 15 16 17 18 19 20 21 22 23 24 25 26 27
000
ASUS45 KCYS 261410
RWRWY

WYOMING REGIONAL WEATHER ROUNDUP
NATIONAL WEATHER SERVICE CHEYENNE WY
800 AM MDT FRI MAY 26 2017

NOTE:  "FAIR" INDICATES FEW OR NO CLOUDS BELOW 12,000 FEET
WITH NO SIGNIFICANT WEATHER AND/OR OBSTRUCTIONS TO VISIBILITY.

WYZ001-261500-
YELLOWSTONE NATIONAL PARK

CITY           SKY/WX    TMP DP  RH WIND       PRES   REMARKS
LK YELLOWSTONE   N/A     36  28  73 VRB5      29.94F WCI  32
W YELLOWSTONE  NOT AVBL

$$
WYZ002>013-054>058-071-098>099-261500-
NORTHERN WYOMING

CITY           SKY/WX    TMP DP  RH WIND       PRES   REMARKS
JACKSON        LGT RAIN  37  34  87 N5        29.89S WCI  34
CODY           FAIR      47  35  63 CALM      29.95F
GREYBULL       PTSUNNY   52  30  43 N7        29.91F
WORLAND        FAIR      52  37  56 E3        29.92F
SHERIDAN       FAIR      51  38  60 CALM      29.95R
BUFFALO        FAIR      50  36  58 S6        29.96S
GILLETTE       FAIR      51  37  58 W5        29.93S
HULETT         FAIR      48  36  61 SW8       29.94R
NEWCASTLE      FAIR      48  34  57 NW7       29.95S

$$
WYZ014>020-022>026-101>103-261500-
CENTRAL WYOMING

CITY           SKY/WX    TMP DP  RH WIND       PRES   REMARKS
BIG PINEY      CLOUDY    40  36  86 NE7       29.91F
PINEDALE       LGT RAIN  36  34  93 E7        29.93R WCI  30
DUBOIS         CLOUDY    36  32  87 SE15      29.92  WCI  26
LANDER         LGT RAIN  42  38  85 CALM      29.93R
RIVERTON       CLOUDY    44  37  76 NE6       29.93S
CASPER         CLOUDY    48  36  63 E12       29.94S
DOUGLAS        FAIR      50  39  66 S6        29.97R

$$
WYZ021-027>030-104>119-261500-
SOUTHERN WYOMING

CITY           SKY/WX    TMP DP  RH WIND       PRES   REMARKS
EVANSTON       CLOUDY    44  32  62 NE9       29.85R
FORT BRIDGER   RAIN      41  36  81 N16       29.90R
ROCK SPRINGS   LGT RAIN  42  35  76 E17       29.88R
DIXON            N/A     44  37  78 NE9       29.92
RAWLINS        CLOUDY    41  35  79 NE7       29.93S
SARATOGA       FAIR      45  36  70 SE15G22   29.93
LARAMIE        FAIR      43  36  76 SE21      29.96S
CHEYENNE       CLOUDY    46  34  62 MISG      29.99S
TORRINGTON     PTSUNNY   50  39  66 SW5       29.96R
PINE BLUFFS    FAIR      45  39  81 CALM      29.99

$$




USA.gov is the U.S. government's official web portal to all federal, state and local government web resources and services.